Location: Ostrava
(49.8330°N, 18.2830°E)
Time: 09:30:30
(UTC+02:00)

Iridium 39 - Visible Passes

Search period start: 16 April 2014 00:00
Search period end: 26 April 2014 00:00
Orbit: 776 x 779 km, 86.4° (Epoch: 15 April)

Date Brightness Start Highest point End Pass type
(mag) Time Alt. Az. Time Alt. Az. Time Alt. Az.
16 Apr 6.7 20:12:16 10° SSE 20:16:55 34° E 20:21:36 10° NNE visible
16 Apr 7.5 21:52:50 10° SW 21:57:37 36° WNW 22:02:26 10° N visible
17 Apr 6.6 21:18:47 10° SSW 21:23:55 61° W 21:29:06 10° N visible
18 Apr 6.0 20:45:09 10° S 20:50:21 80° E 20:55:35 10° N visible
18 Apr 8.7 22:28:29 10° WSW 22:31:46 17° WNW 22:35:04 10° NNW visible
19 Apr 8.1 21:53:29 10° SW 21:57:52 27° WNW 22:02:17 10° NNW visible
20 Apr 7.2 21:19:08 10° SSW 21:24:05 44° W 21:29:05 10° N visible
21 Apr 6.3 20:45:15 10° S 20:50:27 75° W 20:55:41 10° N visible
21 Apr 9.0 22:30:05 10° W 22:32:09 12° WNW 22:34:13 10° NW visible
22 Apr 8.6 21:54:21 10° WSW 21:58:09 20° WNW 22:01:59 10° NNW visible
23 Apr 7.9 21:19:38 10° SW 21:24:18 33° WNW 21:29:00 10° NNW visible
24 Apr 6.9 20:45:29 10° SSW 20:50:35 55° W 20:55:43 10° N visible
25 Apr 8.9 21:55:33 10° WSW 21:58:30 15° WNW 22:01:27 10° NNW visible
